[[{"header":{"parameterUnit":"m.s-1","parameterCategory":1,"la1":30.2991,"la2":30.254,"lo1":-89.0895,"lo2":-89.0444,"dy":0.0017,"dx":0.0017,"nx":28,"ny":28,"refTime":"2023-09-08T21:00:00:Z","depth":0,"parameterNumber":2,"parameterNumberName":"U-component_of_WINDS"},"data":[0,0,0,0,0,0,0,0,0,0,0,0,0,0,0,0,0,0,0,0,0,0,0,0,0,0,0,0,0,0,0,0,0,0,0,0,0,0,0,0,0,0,0,0,0,0,0,0,0,0,0,0,0,0,0,0,0,0,-1.4822,-1.4822,0,-1.4763,-1.4762,-1.4762,-1.4689,-1.4687,-1.4686,-1.4685,-1.4624,-1.4623,-1.4622,0,0,0,0,0,0,0,0,0,0,0,0,0,-1.4872,-1.4871,-1.4822,-1.4822,-1.4821,-1.4763,-1.4762,-1.4762,-1.4689,-1.4687,-1.4686,-1.4685,-1.4624,-1.4623,-1.4622,0,0,0,0,0,0,0,0,0,0,0,0,0,-1.4835,-1.4871,-1.4823,-1.4778,-1.4773,-1.4763,-1.4762,-1.4761,-1.4689,-1.4687,-1.4686,-1.4684,-1.4624,-1.4623,-1.4622,-1.4652,0,0,-1.462,-1.4619,0,0,0,0,0,0,0,0,-1.4837,-1.4834,-1.4785,-1.4781,-1.4776,-1.4731,-1.4757,-1.4725,-1.469,-1.4721,-1.4685,-1.4683,-1.4661,-1.4657,-1.4649,-1.4649,-1.4646,-1.462,-1.4619,-1.4619,-1.4619,0,0,0,0,0,0,0,-1.484,-1.4836,-1.4799,-1.4784,-1.4779,-1.476,-1.4753,-1.4751,-1.4701,-1.4718,-1.4713,-1.4707,-1.4658,-1.465,-1.4647,-1.4645,-1.462,-1.4619,-1.4618,-1.4618,-1.4665,-1.4667,0,0,0,0,0,0,-1.4849,-1.4838,-1.4801,-1.4797,-1.4803,-1.4761,-1.4753,-1.4747,-1.4701,-1.4692,-1.4708,-1.4704,-1.4653,-1.4649,-1.4645,-1.4677,-1.4619,-1.4618,-1.4617,-1.4664,-1.4666,-1.4668,0,0,0,0,0,0,-1.4851,-1.4847,-1.4803,-1.4816,-1.4809,-1.4762,-1.4756,-1.4747,-1.474,-1.4694,-1.4684,-1.471,-1.4651,-1.4646,-1.4651,-1.4673,-1.4618,-1.4617,-1.4662,-1.4664,-1.4667,-1.474,0,0,0,0,0,0,-1.4853,-1.4848,-1.4859,-1.4817,-1.4809,-1.481,-1.4758,-1.4747,-1.4738,-1.4732,-1.4693,-1.4685,-1.465,-1.4652,-1.465,-1.4671,-1.4616,-1.4659,-1.4663,-1.4666,-1.4735,-1.4745,-1.4753,0,0,0,0,0,-1.4855,-1.4881,-1.486,-1.4855,-1.4822,-1.4812,-1.4807,-1.4767,-1.4741,-1.4751,-1.4721,-1.4686,-1.4671,-1.4653,-1.465,-1.4671,-1.4658,-1.4662,-1.4666,-1.4731,-1.4743,-1.4753,0,0,0,0,0,0,-1.4927,-1.4875,-1.485,-1.4865,-1.4843,-1.48,-1.4812,-1.478,-1.4765,-1.476,-1.4709,-1.4701,-1.4712,-1.4692,-1.4673,-1.4697,-1.4659,-1.4663,-1.471,-1.4721,-1.473,-1.4735,-1.4615,0,0,0,0,0,-1.4944,-1.4941,-1.4896,-1.4913,-1.4903,-1.486,-1.4854,-1.4824,-1.48,-1.479,-1.4761,-1.4739,-1.4729,-1.4724,-1.4712,-1.4732,-1.4722,-1.4745,-1.4754,-1.4761,-1.4765,-1.4774,-1.4784,-1.4681,-1.4681,-1.4681,0,0,-1.4981,-1.4952,-1.4953,-1.4927,-1.4907,-1.4904,-1.4852,-1.4852,-1.485,-1.479,-1.4793,-1.4771,-1.4742,-1.4755,-1.4758,-1.4738,-1.4791,-1.4766,-1.4772,-1.4772,-1.4779,-1.4789,-1.4798,-1.4684,-1.4683,-1.4683,0,0,-1.5046,-1.5024,-1.5036,-1.5017,-1.4987,-1.4957,-1.4961,-1.4921,-1.4905,-1.4906,-1.4862,-1.4858,-1.4842,-1.4824,-1.4813,-1.4871,-1.4837,-1.4868,-1.4915,-1.4924,-1.4932,-1.4939,-1.496,-1.4969,-1.4872,-1.4872,-1.4872,0,-1.5095,-1.509,-1.5046,-1.5048,-1.5038,-1.4984,-1.4996,-1.4979,-1.4947,-1.4941,-1.4919,-1.4898,-1.4875,-1.4883,-1.4897,-1.4889,-1.4891,-1.4873,-1.4935,-1.4941,-1.4947,-1.4967,-1.4975,-1.4876,-1.4876,-1.4875,-1.4875,0,-1.5151,-1.5148,-1.5161,-1.5133,-1.5124,-1.5131,-1.5088,-1.5084,-1.5055,-1.5028,-1.503,-1.5001,-1.4983,-1.4982,-1.4954,-1.4986,-1.4974,-1.4944,-1.4905,-1.4962,-1.4979,-1.4986,-1.4882,-1.488,-1.4879,-1.4878,0,0,-1.5261,-1.5208,-1.5213,-1.52,-1.5163,-1.516,-1.5164,-1.5146,-1.5144,-1.5124,-1.5126,-1.5114,-1.5086,-1.5073,-1.5042,-1.5051,-1.5099,-1.5019,-1.5018,-1.5036,-1.5133,-1.5157,-1.5166,-1.5077,-1.5078,-1.5079,-1.5136,0,-1.532,-1.5325,-1.5286,-1.5301,-1.5298,-1.5247,-1.5251,-1.5229,-1.5203,-1.5197,-1.5168,-1.5161,-1.5124,-1.5116,-1.5122,-1.5092,-1.5118,-1.5087,-1.5079,-1.5079,-1.5089,-1.5175,-1.52,-1.5255,-1.5142,-1.5143,-1.5144,0,-1.539,-1.5374,-1.539,-1.5352,-1.5349,-1.5354,-1.5334,-1.5328,-1.5302,-1.5283,-1.5269,-1.5233,-1.5235,-1.5197,-1.5198,-1.5178,-1.5172,-1.5157,-1.5158,-1.5157,-1.5116,-1.5177,-1.5272,-1.528,-1.5154,-1.5154,-1.5153,0,-1.5469,-1.5451,-1.5458,-1.5448,-1.5405,-1.5409,-1.5391,-1.5363,-1.5355,-1.5337,-1.5332,-1.5315,-1.5306,-1.5294,-1.5255,-1.5231,-1.5261,-1.522,-1.5245,-1.5246,-1.5255,-1.5255,-1.5351,-1.5249,-1.5249,-1.5249,-1.5249,0,-1.554,-1.5552,-1.5494,-1.5498,-1.551,-1.5464,-1.5476,-1.5453,-1.5429,-1.5428,-1.5382,-1.5381,-1.5329,-1.5323,-1.5293,-1.5299,-1.5295,-1.5279,-1.5271,-1.5284,-1.5286,-1.528,-1.5276,-1.5251,-1.5251,-1.525,-1.525,0,-1.5631,-1.5593,-1.5597,-1.5555,-1.5545,-1.5556,-1.552,-1.5522,-1.5494,-1.5493,-1.549,-1.5445,-1.5436,-1.5396,-1.5376,-1.5355,-1.5372,-1.5355,-1.5381,-1.5376,-1.5404,-1.5403,-1.5501,-1.5511,-1.5403,-1.5404,-1.5405,0,-1.5679,-1.5687,-1.5646,-1.5642,-1.5627,-1.5621,-1.5612,-1.5567,-1.556,-1.5531,-1.5537,-1.5524,-1.5511,-1.5498,-1.5464,-1.5449,-1.5432,-1.5467,-1.5429,-1.5442,-1.5433,-1.5434,-1.5435,-1.5476,-1.5477,-1.5478,-1.5479,0,-1.5769,-1.5749,-1.5739,-1.5723,-1.5714,-1.5699,-1.5681,-1.568,-1.563,-1.5624,-1.5614,-1.5604,-1.5585,-1.5572,-1.5552,-1.5532,-1.5498,-1.5491,-1.5497,-1.551,-1.5525,-1.5518,-1.5405,-1.549,-1.5488,-1.5488,-1.5487,-1.5487,-1.584,-1.5845,-1.5817,-1.5808,-1.5789,-1.5773,-1.5774,-1.5745,-1.5736,-1.5717,-1.5691,-1.5684,-1.5657,-1.5626,-1.5609,-1.5603,-1.5584,-1.5591,-1.5593,-1.5596,-1.5603,-1.5526,-1.5599,-1.5599,-1.5598,-1.5598,-1.5598,0,-1.5928,-1.5908,-1.5899,-1.5876,-1.5868,-1.5836,-1.5814,-1.581,-1.5805,-1.5783,-1.5771,-1.576,-1.5747,-1.5712,-1.5696,-1.5698,-1.5682,-1.5696,-1.5695,-1.5692,-1.5621,-1.5618,-1.5709,-1.5709,-1.5709,-1.5709,-1.5709,-1.5709,-1.5974,-1.598,-1.5957,-1.5954,-1.5933,-1.5927,-1.5917,-1.5902,-1.5884,-1.5874,-1.5864,-1.5841,-1.5813,-1.5795,-1.5782,-1.5772,-1.5768,-1.5788,-1.5773,-1.5707,-1.5697,-1.5687,-1.5684,-1.5787,-1.5787,-1.5844,-1.5845,-1.5845]},{"header":{"parameterUnit":"m.s-1","parameterCategory":1,"la1":30.2991,"la2":30.254,"lo1":-89.0895,"lo2":-89.0444,"dy":0.0017,"dx":0.0017,"nx":28,"ny":28,"refTime":"2023-09-08T21:00:00:Z","depth":0,"parameterNumber":3,"parameterNumberName":"V-component_of_WINDS"},"data":[0,0,0,0,0,0,0,0,0,0,0,0,0,0,0,0,0,0,0,0,0,0,0,0,0,0,0,0,0,0,0,0,0,0,0,0,0,0,0,0,0,0,0,0,0,0,0,0,0,0,0,0,0,0,0,0,0,0,-1.9663,-1.9663,0,-1.9667,-1.9667,-1.9667,-1.9645,-1.9645,-1.9644,-1.9643,-1.9647,-1.9648,-1.9648,0,0,0,0,0,0,0,0,0,0,0,0,0,-1.9636,-1.9636,-1.9663,-1.9663,-1.9663,-1.9667,-1.9667,-1.9667,-1.9645,-1.9645,-1.9644,-1.9643,-1.9647,-1.9647,-1.9648,0,0,0,0,0,0,0,0,0,0,0,0,0,-1.9644,-1.9636,-1.9663,-1.9653,-1.9652,-1.9667,-1.9667,-1.9667,-1.9646,-1.9645,-1.9644,-1.9643,-1.9646,-1.9647,-1.9648,-1.9673,0,0,-1.9651,-1.9652,0,0,0,0,0,0,0,0,-1.9644,-1.9645,-1.9654,-1.9653,-1.9653,-1.9655,-1.9659,-1.9669,-1.9646,-1.9648,-1.9643,-1.9642,-1.965,-1.9651,-1.9654,-1.9673,-1.9674,-1.9652,-1.9652,-1.9653,-1.9653,0,0,0,0,0,0,0,-1.9643,-1.9645,-1.9665,-1.9654,-1.9653,-1.9648,-1.9648,-1.9661,-1.9654,-1.9648,-1.9646,-1.9647,-1.965,-1.9653,-1.9654,-1.9674,-1.9651,-1.9652,-1.9653,-1.9653,-1.9715,-1.9716,0,0,0,0,0,0,-1.9644,-1.9645,-1.9664,-1.9665,-1.9646,-1.9649,-1.9649,-1.9655,-1.9654,-1.9653,-1.9648,-1.9646,-1.9651,-1.9652,-1.9654,-1.9683,-1.9653,-1.9653,-1.9654,-1.9714,-1.9715,-1.9716,0,0,0,0,0,0,-1.9644,-1.9646,-1.9664,-1.9654,-1.9656,-1.965,-1.9657,-1.9656,-1.9659,-1.9654,-1.9653,-1.9652,-1.9651,-1.9652,-1.9669,-1.9683,-1.9654,-1.9655,-1.9712,-1.9714,-1.9715,-1.9742,0,0,0,0,0,0,-1.9643,-1.9646,-1.9656,-1.9655,-1.9657,-1.968,-1.9658,-1.9656,-1.9661,-1.9658,-1.9658,-1.9657,-1.965,-1.9667,-1.967,-1.9684,-1.9656,-1.9711,-1.9713,-1.9715,-1.974,-1.9745,-1.9748,0,0,0,0,0,-1.9642,-1.9663,-1.9656,-1.9659,-1.9669,-1.9681,-1.9682,-1.9674,-1.9662,-1.9671,-1.9668,-1.9657,-1.9681,-1.9669,-1.9672,-1.9686,-1.971,-1.9713,-1.9715,-1.9738,-1.9744,-1.9748,0,0,0,0,0,0,-1.9665,-1.9662,-1.9655,-1.9676,-1.9679,-1.9677,-1.9689,-1.968,-1.9685,-1.9683,-1.9672,-1.9672,-1.9691,-1.969,-1.9677,-1.9711,-1.9694,-1.9696,-1.9711,-1.9716,-1.972,-1.972,-1.9656,0,0,0,0,0,-1.9673,-1.9683,-1.968,-1.9699,-1.97,-1.9694,-1.9699,-1.9693,-1.9695,-1.9696,-1.9694,-1.9696,-1.9704,-1.971,-1.9717,-1.974,-1.974,-1.9751,-1.9755,-1.9759,-1.9761,-1.9774,-1.9779,-1.9724,-1.9724,-1.9724,0,0,-1.9688,-1.9688,-1.9695,-1.9703,-1.9705,-1.9715,-1.9695,-1.9707,-1.9715,-1.9697,-1.9713,-1.9712,-1.9714,-1.9734,-1.9743,-1.9734,-1.9777,-1.9762,-1.9764,-1.9765,-1.9777,-1.9782,-1.9787,-1.9725,-1.9725,-1.9725,0,0,-1.9722,-1.9723,-1.9739,-1.9741,-1.9743,-1.9739,-1.9743,-1.9743,-1.9741,-1.9757,-1.9744,-1.9753,-1.9767,-1.9769,-1.9772,-1.9807,-1.9797,-1.981,-1.9832,-1.9844,-1.9848,-1.9852,-1.9865,-1.987,-1.9813,-1.9813,-1.9813,0,-1.9741,-1.9757,-1.9748,-1.9762,-1.9766,-1.9751,-1.9767,-1.9769,-1.9773,-1.9776,-1.9767,-1.9784,-1.9784,-1.9805,-1.9814,-1.9816,-1.982,-1.981,-1.9848,-1.9852,-1.9855,-1.9868,-1.9872,-1.9814,-1.9814,-1.9814,-1.9814,0,-1.9781,-1.9792,-1.9804,-1.981,-1.9815,-1.983,-1.9823,-1.983,-1.9823,-1.982,-1.9836,-1.9836,-1.9843,-1.9847,-1.984,-1.9867,-1.9861,-1.985,-1.9833,-1.9862,-1.9874,-1.9878,-1.9817,-1.9816,-1.9815,-1.9815,0,0,-1.9829,-1.983,-1.9835,-1.9837,-1.9839,-1.9847,-1.9861,-1.9868,-1.9874,-1.9878,-1.9889,-1.9902,-1.9891,-1.9895,-1.9888,-1.9899,-1.9927,-1.9886,-1.9886,-1.9894,-1.9957,-1.9965,-1.9971,-1.992,-1.9921,-1.9922,-1.9956,0,-1.9863,-1.9887,-1.988,-1.9904,-1.9914,-1.99,-1.9912,-1.9915,-1.9912,-1.992,-1.9917,-1.9927,-1.9912,-1.9914,-1.9924,-1.9922,-1.994,-1.9919,-1.9931,-1.9931,-1.9931,-1.9976,-1.9986,-2.0018,-1.9961,-1.9961,-1.9962,0,-1.9905,-1.9911,-1.9937,-1.9937,-1.9941,-1.9952,-1.9958,-1.9966,-1.9969,-1.9966,-1.997,-1.9961,-1.9975,-1.9957,-1.9976,-1.9962,-1.9967,-1.9966,-1.9967,-1.9968,-1.9949,-1.9979,-2.0028,-2.0033,-1.9969,-1.9968,-1.9968,0,-1.9939,-1.9953,-1.997,-1.9972,-1.9973,-1.9981,-1.9982,-1.9983,-1.9988,-1.9994,-1.9997,-2.0004,-2.0007,-2.0013,-2.0006,-1.9994,-2.0026,-2.0008,-2.0024,-2.0024,-2.0031,-2.0031,-2.0083,-2.0034,-2.0034,-2.0034,-2.0034,0,-1.9977,-1.9993,-1.9985,-1.9996,-2.0013,-2.0005,-2.0023,-2.0022,-2.0023,-2.0033,-2.0021,-2.0031,-2.0021,-2.003,-2.0025,-2.0041,-2.0043,-2.0041,-2.0039,-2.0042,-2.0043,-2.0045,-2.0043,-2.0035,-2.0035,-2.0035,-2.0034,0,-2.0017,-2.0012,-2.003,-2.003,-2.003,-2.0043,-2.0043,-2.0052,-2.0049,-2.0062,-2.0065,-2.006,-2.0069,-2.0063,-2.0073,-2.0069,-2.0091,-2.0086,-2.009,-2.0089,-2.0106,-2.0104,-2.0161,-2.0168,-2.0115,-2.0115,-2.0116,0,-2.0042,-2.0054,-2.0056,-2.0062,-2.0063,-2.0073,-2.0078,-2.007,-2.0076,-2.008,-2.0089,-2.0098,-2.0105,-2.0121,-2.0118,-2.0125,-2.0121,-2.014,-2.0122,-2.0124,-2.0121,-2.0121,-2.0122,-2.0144,-2.0144,-2.0145,-2.0145,0,-2.0087,-2.0084,-2.0092,-2.01,-2.0107,-2.0112,-2.0116,-2.0122,-2.0114,-2.0121,-2.0131,-2.0137,-2.0147,-2.0156,-2.0162,-2.0162,-2.0153,-2.0151,-2.0155,-2.0158,-2.016,-2.016,-2.01,-2.015,-2.0149,-2.0149,-2.0149,-2.0149,-2.0121,-2.0131,-2.0134,-2.0143,-2.0146,-2.015,-2.016,-2.0158,-2.0166,-2.0174,-2.0169,-2.0181,-2.0183,-2.019,-2.0192,-2.0201,-2.0193,-2.0199,-2.0201,-2.0202,-2.0205,-2.0159,-2.0202,-2.0202,-2.0202,-2.0202,-2.0202,0,-2.0165,-2.0166,-2.0175,-2.0182,-2.019,-2.018,-2.0185,-2.0192,-2.0202,-2.0205,-2.0212,-2.0224,-2.0233,-2.0231,-2.0238,-2.0246,-2.0242,-2.0248,-2.0248,-2.0248,-2.0211,-2.0207,-2.0252,-2.0252,-2.0252,-2.0252,-2.0252,-2.0252,-2.0189,-2.0207,-2.0204,-2.0222,-2.0223,-2.0235,-2.0239,-2.0243,-2.0245,-2.0259,-2.0266,-2.0265,-2.0266,-2.0274,-2.0281,-2.028,-2.0284,-2.0292,-2.029,-2.0256,-2.0251,-2.0246,-2.0242,-2.0293,-2.0293,-2.0326,-2.0326,-2.0326]}]]